Weather reports worldwide

Advertisment
Helgoland, Germany (10015): temperature & dewpoint: 15.06.2018 23:00:00 - 21.06.2018 23:00:00 (CEST)Helgoland, Germany (10015): temperature 5cm: 15.06.2018 23:00:00 - 21.06.2018 23:00:00 (CEST)Helgoland, Germany (10015): wind speed & gusts: 15.06.2018 23:00:00 - 21.06.2018 23:00:00 (CEST)Helgoland, Germany (10015): wind direction: 15.06.2018 23:00:00 - 21.06.2018 23:00:00 (CEST)Helgoland, Germany (10015): reduced air pressure: 15.06.2018 23:00:00 - 21.06.2018 23:00:00 (CEST)Helgoland, Germany (10015): visibility: 15.06.2018 23:00:00 - 21.06.2018 23:00:00 (CEST)Helgoland, Germany (10015): sunshine duration: 15.06.2018 23:00:00 - 21.06.2018 23:00:00 (CEST)Helgoland, Germany (10015): precipitation: 15.06.2018 23:00:00 - 21.06.2018 23:00:00 (CEST)
Date & Time tt [°C] td [°C] tt 5cm [°C] ff [km/h] ff [kn] fx [km/h] fx [kn] dd ppp [hPa] vv [km] sd [min] rr [mm]
21.06.2018 23:00:00 12,3 8,7 10,8 40 21 63 34 WNW 1016,4 20 0 0,2
21.06.2018 22:00:00 12,7 7,2 11,9 48 26 59 32 WNW 1016,5 29 0 0,0
21.06.2018 21:00:00 12,9 7,5 12,6 44 24 61 33 WNW 1016,8 27 7 0,0
21.06.2018 20:00:00 11,8 7,2 11,3 52 28 69 38 WNW 1017,4 16 40 0,0
21.06.2018 19:00:00 12,4 7,4 13,0 50 27 68 37 WNW 1017,2 19 32 0,1
21.06.2018 18:00:00 13,1 7,0 14,8 48 26 64 34 NW 1016,7 21 45 0,0
21.06.2018 17:00:00 14,1 8,4 18,5 44 24 64 35 NW 1016,2 19 37 0,4
21.06.2018 16:00:00 13,7 8,1 17,0 45 24 66 36 NW 1015,3 13 36 0,6
21.06.2018 15:00:00 12,6 8,0 15,5 39 21 61 33 WNW 1014,6 11 13 0,1
21.06.2018 14:00:00 13,1 7,4 17,1 34 19 55 30 WNW 1013,7 13 33 0,0
21.06.2018 13:00:00 12,2 7,6 13,1 41 22 58 31 NW 1013,2 16 14 0,2
21.06.2018 12:00:00 13,1 8,4 16,4 42 23 62 33 NW 1012,2 20 23 0,0
21.06.2018 11:00:00 12,3 8,7 12,7 39 21 74 40 WNW 1011,4 24 2 1,2
21.06.2018 10:00:00 14,4 9,2 18,7 31 17 36 20 W 1011,2 22 22 0,0
21.06.2018 09:00:00 13,5 10,0 13,4 27 15 38 21 W 1011,5 37 0 0,0
21.06.2018 08:00:00 13,7 9,5 13,4 31 17 44 24 WNW 1011,8 39 0 0,0
21.06.2018 07:00:00 13,8 9,2 12,2 33 18 41 22 WNW 1011,9 42 0 0,0
21.06.2018 06:00:00 13,9 9,8 12,3 33 18 40 22 WNW 1012,2 47 0 0,0
21.06.2018 05:00:00 14,1 11,0 12,9 28 15 34 19 WNW 1012,7 33 0 0,0
21.06.2018 04:00:00 14,3 11,5 13,1 21 11 29 16 WNW 1013,2 31 0 0,0
21.06.2018 03:00:00 14,2 12,0 13,6 23 12 33 18 NW 1013,4 25 0 0,0
21.06.2018 02:00:00 14,6 13,5 14,4 24 13 35 19 NW 1013,6 10 0 0,0
21.06.2018 01:00:00 15,5 14,8 15,2 26 14 37 20 W 1014,1 11 0 0,3
21.06.2018 00:00:00 15,6 15,2 15,4 29 16 38 20 W 1014,6 3,3 0 0,4
20.06.2018 23:00:00 16,0 15,0 16,0 31 17 40 22 WSW 1014,9 10 0 0,0
20.06.2018 22:00:00 16,1 14,8 16,0 32 17 45 24 WSW 1015,1 14 0 0,0
20.06.2018 21:00:00 16,1 14,6 16,5 36 20 48 26 WSW 1015,2 16 18 0,0
20.06.2018 20:00:00 16,0 14,5 16,8 40 22 50 27 WSW 1015,8 13 43 0,0
20.06.2018 19:00:00 16,6 14,7 19,6 37 20 47 25 W 1016,2 9 42 0,0
20.06.2018 18:00:00 16,9 15,4 19,1 36 19 45 24 W 1016,8 6 15 0,0
20.06.2018 17:00:00 18,0 15,5 22,3 39 21 53 29 WSW 1016,9 4,3 58 0,0
20.06.2018 16:00:00 18,5 15,5 24,2 30 16 36 19 W 1017,1 5 60 0,0
20.06.2018 15:00:00 18,6 15,6 26,3 26 14 31 17 W 1017,6 4,8 60 0,0
20.06.2018 14:00:00 17,8 15,5 25,1 19 10 29 16 WSW 1017,6 4,8 60 0,0
20.06.2018 13:00:00 19,1 15,6 26,8 19 10 30 16 WSW 1018,3 4,4 60 0,0
20.06.2018 12:00:00 18,0 15,3 25,0 21 11 31 17 SW 1018,7 6 55 0,0
20.06.2018 11:00:00 17,6 15,1 21,3 29 16 34 18 SW 1018,8 6 52 0,0
20.06.2018 10:00:00 17,9 15,1 22,8 29 16 36 19 SSW 1018,9 6 60 0,0
20.06.2018 09:00:00 16,9 14,7 20,3 30 16 39 21 SSW 1019,0 6 60 0,0
20.06.2018 08:00:00 16,5 15,0 17,9 32 17 40 21 SSW 1019,2 6 11 0,0
20.06.2018 07:00:00 16,0 14,4 16,6 34 18 39 21 SSW 1019,4 7 48 0,0
20.06.2018 06:00:00 15,8 14,1 15,4 32 18 39 21 S 1019,8 8 0 0,0
20.06.2018 05:00:00 15,7 13,7 15,0 33 18 41 22 S 1020,0 13 0 0,0
20.06.2018 04:00:00 15,5 12,9 15,1 25 13 29 16 S 1020,4 20 0 0,0
20.06.2018 03:00:00 15,4 12,4 14,7 20 11 23 12 S 1021,0 24 0 0,0
20.06.2018 02:00:00 15,0 12,2 14,9 16 9 19 10 SSW 1021,9 27 0 0,0
20.06.2018 01:00:00 14,9 11,9 14,8 10 6 14 8 SW 1022,2 30 0 0,0
20.06.2018 00:00:00 15,0 11,3 14,6 11 6 19 10 WSW 1022,5 38 0 0,0
19.06.2018 23:00:00 14,8 10,9 13,3 15 8 23 12 W 1022,9 37 0 0,0
19.06.2018 22:00:00 15,0 10,3 13,7 18 10 28 15 W 1022,8 36 16 0,0
19.06.2018 21:00:00 15,5 9,7 15,6 24 13 29 16 W 1022,6 26 60 0,0
19.06.2018 20:00:00 15,8 10,5 18,4 22 12 31 17 W 1022,8 16 60 0,0
19.06.2018 19:00:00 16,4 10,5 20,6 24 13 32 17 W 1022,7 14 60 0,0
19.06.2018 18:00:00 16,7 10,2 21,8 26 14 34 18 W 1022,7 12 56 0,0
19.06.2018 17:00:00 17,3 10,9 23,9 18 10 23 12 W 1022,4 16 60 0,0
19.06.2018 16:00:00 16,4 10,9 26,3 18 10 28 15 WNW 1022,2 9 60 0,0
19.06.2018 15:00:00 17,5 10,7 24,8 25 13 30 16 WNW 1021,8 9 60 0,0
19.06.2018 14:00:00 17,0 12,2 25,3 19 10 27 14 W 1021,7 12 60 0,0
19.06.2018 13:00:00 17,2 11,5 25,0 21 12 26 14 WNW 1021,2 10 50 0,0
19.06.2018 12:00:00 16,8 13,7 22,3 15 8 23 12 W 1020,5 22 1 0,0
19.06.2018 11:00:00 16,7 13,4 22,6 14 7 28 15 W 1019,9 16 19 0,0
19.06.2018 10:00:00 15,8 14,3 16,8 24 13 39 21 W 1019,4 13 0 0,0
19.06.2018 09:00:00 15,8 14,6 18,0 28 15 37 20 WSW 1018,3 10 7 0,0
19.06.2018 08:00:00 15,6 14,4 16,2 28 15 36 19 WSW 1017,7 9 0 0,0
19.06.2018 07:00:00 15,4 14,1 15,4 30 16 39 21 WSW 1017,3 7 0 0,0
19.06.2018 06:00:00 15,5 14,0 15,5 33 18 40 22 WSW 1016,8 11 0 0,0
19.06.2018 05:00:00 15,4 13,9 15,2 25 14 36 19 SW 1016,5 10 0 0,0
19.06.2018 04:00:00 15,6 13,8 15,4 31 17 39 21 WSW 1016,5 12 0 0,0
19.06.2018 03:00:00 15,6 13,8 15,2 28 15 35 19 SW 1016,7 10 0 0,0
19.06.2018 02:00:00 15,4 14,2 14,9 23 12 30 16 SW 1017,0 9 0 0,0
19.06.2018 01:00:00 15,3 14,2 14,6 24 13 35 19 WSW 1017,3 11 0 0,0
19.06.2018 00:00:00 15,2 14,0 14,4 27 15 35 19 WSW 1017,5 13 0 0,0
18.06.2018 23:00:00 15,2 13,9 14,4 25 14 36 19 WSW 1017,5 14 0 0,0
18.06.2018 22:00:00 15,3 13,9 15,2 27 14 33 18 WSW 1017,0 13 9 0,0
18.06.2018 21:00:00 15,5 14,1 15,7 22 12 30 16 WSW 1017,0 11 16 0,0
18.06.2018 20:00:00 15,4 14,3 16,0 22 12 27 15 WSW 1017,1 11 0 0,0
18.06.2018 19:00:00 15,6 14,1 17,3 19 10 23 13 WSW 1017,0 12 2 0,0
18.06.2018 18:00:00 16,1 14,2 19,7 19 10 26 14 WSW 1017,0 13 15 0,0
18.06.2018 17:00:00 16,0 14,3 19,8 21 12 31 17 WSW 1017,2 11 21 0,0
18.06.2018 16:00:00 16,3 14,2 20,9 26 14 34 19 WSW 1017,3 11 23 0,0
18.06.2018 15:00:00 16,7 14,4 21,8 22 12 33 18 SW 1017,2 7 1 0,0
18.06.2018 14:00:00 16,1 14,7 18,5 31 17 38 21 SSW 1016,8 3,6 3 0,0
18.06.2018 13:00:00 16,2 13,9 20,6 31 17 38 21 SSW 1016,9 8 1 0,0
18.06.2018 12:00:00 15,9 13,5 19,4 34 18 40 22 SSW 1016,9 9 0 0,0
18.06.2018 11:00:00 15,0 13,5 17,5 34 19 45 25 SSW 1016,8 7 0 0,0
18.06.2018 10:00:00 15,1 12,9 17,0 33 18 43 23 SSW 1016,8 11 0 0,0
18.06.2018 09:00:00 15,1 12,3 16,8 35 19 43 23 SSW 1016,8 12 0 0,0
18.06.2018 08:00:00 14,9 12,2 15,9 30 16 37 20 SSW 1016,6 16 0 0,0
18.06.2018 07:00:00 14,8 12,4 14,9 32 17 41 22 SSW 1016,5 15 0 0,0
18.06.2018 06:00:00 14,5 12,5 14,3 31 17 36 20 SSW 1016,7 12 0 0,0
18.06.2018 05:00:00 14,6 12,5 13,2 27 15 34 19 SSW 1016,8 14 0 0,0
18.06.2018 04:00:00 14,7 12,7 13,0 23 12 27 14 SSW 1016,9 14 0 0,0
18.06.2018 03:00:00 15,0 12,6 13,9 18 10 24 13 SW 1017,0 20 0 0,0
18.06.2018 02:00:00 14,8 12,5 13,4 18 10 24 13 WSW 1017,5 17 0 0,0
18.06.2018 01:00:00 14,6 12,2 13,4 18 10 26 14 WSW 1017,4 18 0 0,0
18.06.2018 00:00:00 14,6 11,7 13,9 19 10 26 14 WSW 1017,4 20 0 0,0
17.06.2018 23:00:00 14,5 12,0 13,5 19 10 23 13 WSW 1017,2 17 0 0,0
17.06.2018 22:00:00 14,8 11,9 14,4 16 9 21 11 WSW 1017,0 18 0 0,0
17.06.2018 21:00:00 15,0 12,1 14,6 16 9 25 13 WSW 1016,8 17 45 0,0
17.06.2018 20:00:00 15,5 11,9 17,4 21 11 30 16 W 1016,8 19 57 0,0
17.06.2018 19:00:00 15,6 11,8 18,9 24 13 29 16 WSW 1016,4 12 52 0,0
17.06.2018 18:00:00 15,8 11,9 20,7 23 13 32 17 WSW 1016,1 11 60 0,0
17.06.2018 17:00:00 16,3 12,0 22,5 20 11 26 14 WSW 1015,9 11 60 0,0
17.06.2018 16:00:00 16,4 12,1 23,4 22 12 28 15 WSW 1015,6 11 59 0,0
17.06.2018 15:00:00 16,1 11,4 22,7 22 12 29 16 WSW 1015,3 13 49 0,0
17.06.2018 14:00:00 16,3 11,7 21,3 24 13 32 18 W 1014,8 16 38 0,0
17.06.2018 13:00:00 16,2 11,9 21,6 23 12 34 18 W 1014,3 14 38 0,0
17.06.2018 12:00:00 15,9 12,0 22,1 29 16 36 20 W 1013,7 16 8 0,0
17.06.2018 11:00:00 15,9 12,7 22,2 23 12 36 20 WSW 1013,3 11 26 0,0
17.06.2018 10:00:00 15,4 12,8 17,6 28 15 38 21 SW 1012,9 20 3 0,0
17.06.2018 09:00:00 15,3 12,3 18,0 31 17 39 21 SSW 1012,3 19 14 0,0
17.06.2018 08:00:00 15,0 12,4 16,8 34 19 40 21 SSW 1012,1 18 45 0,0
17.06.2018 07:00:00 14,9 12,0 14,9 31 17 40 22 SSW 1012,1 14 51 0,0
17.06.2018 06:00:00 14,9 11,5 13,8 32 17 37 20 SW 1012,2 19 0 0,0
17.06.2018 05:00:00 14,9 11,6 13,4 28 15 33 18 SW 1012,4 25 0 0,0
17.06.2018 04:00:00 15,2 11,8 13,7 26 14 35 19 SW 1012,6 25 0 0,0
17.06.2018 03:00:00 15,4 14,1 14,2 20 11 26 14 SSW 1012,9 6 0 0,0
17.06.2018 02:00:00 15,4 13,6 13,9 19 10 23 12 SW 1013,1 10 0 0,0
17.06.2018 01:00:00 15,4 13,7 14,8 21 11 26 14 SSW 1013,3 9 0 0,0
17.06.2018 00:00:00 15,3 13,4 14,8 16 9 19 10 SSW 1013,2 9 0 0,0
16.06.2018 23:00:00 15,5 13,1 14,9 13 7 14 7 SSW 1013,2 12 0 0,0
16.06.2018 22:00:00 15,5 13,1 13,9 7 4 10 5 SW 1013,2 12 0 0,0
16.06.2018 21:00:00 15,8 12,5 14,9 9 5 16 8 W 1013,2 17 6 0,0
16.06.2018 20:00:00 16,2 13,1 17,7 15 8 21 11 WNW 1013,3 12 1 0,0
16.06.2018 19:00:00 17,2 13,2 19,6 8 4 12 6 W 1013,1 11 18 0,0
16.06.2018 18:00:00 18,0 12,8 23,9 4 2 8 4 S 1013,1 10 27 0,0
16.06.2018 17:00:00 17,3 13,1 20,3 3 1 12 7 SE 1013,4 11 3 0,0
16.06.2018 16:00:00 17,8 12,2 25,2 10 5 17 9 WNW 1013,3 13 42 0,0
16.06.2018 15:00:00 17,6 13,0 24,5 6 3 10 5 W 1013,3 9 19 0,0
16.06.2018 14:00:00 16,7 14,0 19,4 10 5 16 9 SW 1013,8 7 21 0,0
16.06.2018 13:00:00 18,6 14,5 24,5 8 4 13 7 SSW 1014,1 10 22 0,0
16.06.2018 12:00:00 16,6 13,9 19,7 6 4 10 6 ESE 1014,2 12 0 0,0
16.06.2018 11:00:00 17,1 13,8 20,6 9 5 23 12 SSE 1014,1 14 0 0,0
16.06.2018 10:00:00 16,2 13,3 17,3 21 11 27 15 SE 1014,0 16 0 0,0
16.06.2018 09:00:00 16,0 12,7 16,6 25 14 29 16 SE 1014,1 24 0 0,0
16.06.2018 08:00:00 16,2 13,0 16,3 22 12 31 17 SE 1014,3 25 0 0,0
16.06.2018 07:00:00 16,3 12,3 15,8 29 16 33 18 SE 1014,5 26 0 0,0
16.06.2018 06:00:00 16,4 12,1 15,8 29 16 37 20 ESE 1014,7 29 0 0,0
16.06.2018 05:00:00 16,5 12,8 15,8 24 13 28 15 ESE 1015,2 28 0 0,0
16.06.2018 04:00:00 15,6 13,0 14,6 18 10 22 12 ESE 1015,6 22 0 0,0
16.06.2018 03:00:00 15,4 12,2 14,1 17 9 18 10 E 1016,0 29 0 0,0
16.06.2018 02:00:00 15,0 12,2 13,5 10 5 14 7 NE 1016,4 25 0 0,0
16.06.2018 01:00:00 15,2 12,2 13,9 13 7 14 7 ENE 1016,5 27 0 0,0
16.06.2018 00:00:00 15,5 12,0 15,1 10 5 15 8 NE 1016,7 31 0 0,0
15.06.2018 23:00:00 16,2 11,4 15,7 15 8 16 9 E 1016,7 39 0 0,0

tt = temperature
td = dewpoint
tt 5cm = temperature 5cm
ff = wind speed
fx = gusts
dd = wind direction
ppp = reduced air pressure
vv = visibility
sd = sunshine duration
rr = precipitation

Next stations